SCP
0 0 0 0 0 0 0 0 0 0 0 0 0 0 0 0 0 0 0 0 1 1 1 1 1 1 1 1 1 1 1 1 1 1 1 1 1 1 0 0 0 0 0 0 0 0 0 0 0
0 0 0 0 0 0 0 0 0 0 0 0 0 0 0 0 0 0 0 0 1 1 1 1 1 1 1 1 1 1 1 1 1 1 1 1 1 1 1 1 1 1 0 0 0 0 0 0 0
0 0 0 0 0 0 0 0 0 0 0 0 0 0 0 0 0 0 0 1 1 1 1 1 1 1 1 1 1 1 1 1 1 1 1 1 1 1 1 1 1 1 1 1 1 1 0 0 0
0 0 0 0 0 0 0 0 0 0 0 0 0 0 0 0 0 0 1 1 1 2 2 1 1 1 1 1 1 1 1 1 1 1 1 1 1 1 1 1 1 1 1 1 1 1 1 1 1
0 0 0 0 0 0 0 0 0 0 0 0 0 0 0 0 0 1 1 1 2 2 2 1 1 1 1 1 1 1 1 1 1 1 1 1 1 1 1 1 1 1 1 1 1 1 1 1 1
0 0 0 0 0 0 0 0 0 0 0 0 0 0 0 0 0 1 1 1 2 2 2 1 1 1 1 1 1 1 1 1 1 1 1 1 1 1 1 1 1 1 1 0 0 0 0 0 0
0 0 0 0 0 0 0 0 0 0 0 0 0 0 0 1 1 1 1 1 2 2 2 1 1 1 0 0 1 1 1 1 1 1 1 1 1 1 1 1 1 1 1 0 0 0 0 0 0
0 0 0 0 0 0 0 0 0 0 0 0 0 0 1 1 1 1 1 2 2 2 1 1 1 0 0 0 0 0 0 1 1 1 1 1 1 1 1 1 1 1 1 0 0 0 0 0 0
0 0 0 0 0 0 0 0 0 0 0 0 0 1 1 1 1 1 1 2 2 2 1 1 1 1 0 0 0 0 0 0 0 1 1 1 1 1 1 1 1 1 1 0 0 0 0 0 0
0 0 0 0 0 0 0 0 0 0 0 0 0 1 1 1 1 1 1 2 2 1 1 1 1 1 0 0 0 0 0 0 0 0 1 1 1 1 1 0 0 0 0 0 0 0 0 0 0
0 0 0 0 0 0 0 0 0 0 0 0 0 0 0 1 1 1 1 2 2 1 1 1 1 1 1 1 1 1 1 0 0 1 1 1 1 1 0 0 0 0 0 0 0 0 0 0 0
0 0 0 0 0 0 0 0 0 0 0 0 0 0 0 0 1 1 1 2 2 1 1 1 1 1 1 1 1 1 1 0 0 1 1 1 1 1 0 0 0 1 1 0 0 0 0 0 0
0 0 0 0 0 0 0 0 0 0 0 0 0 0 1 1 1 1 2 2 2 1 1 1 1 1 1 1 1 1 0 0 0 1 1 1 1 1 1 1 1 1 1 0 0 0 0 0 0
0 0 0 0 0 0 0 0 0 0 0 0 0 1 1 1 1 1 2 2 2 1 1 1 1 1 1 1 1 0 0 0 0 0 1 1 1 1 1 1 1 1 1 0 0 0 0 0 0
0 0 0 0 0 0 0 0 0 0 0 0 0 1 1 1 1 1 1 2 2 1 1 1 1 1 1 1 1 1 0 0 0 0 0 1 1 1 1 1 1 1 1 0 0 0 0 0 0
0 0 0 0 0 0 0 0 0 0 0 0 0 0 1 1 1 1 1 2 1 1 1 1 1 0 0 0 1 1 1 0 0 0 0 0 0 1 1 1 1 1 1 0 0 0 0 0 0
0 0 0 0 0 0 0 0 0 0 0 0 0 0 0 1 1 1 1 1 1 1 1 1 0 0 0 0 0 1 1 0 0 0 0 0 0 0 0 1 1 1 1 0 0 0 0 0 0
0 0 0 0 0 0 0 0 0 0 0 0 0 0 0 0 1 1 1 1 1 1 1 0 0 0 0 0 0 0 0 0 0 0 0 0 0 0 0 0 1 1 0 0 0 0 0 0 0
0 0 0 0 0 0 0 0 0 0 0 0 0 0 0 0 1 1 1 1 1 1 1 1 0 0 0 0 0 0 0 0 0 0 0 0 0 0 0 0 0 0 0 0 0 0 0 0 0
0 0 0 0 0 0 0 0 0 0 0 0 0 0 0 0 0 1 1 1 1 1 1 1 1 1 0 0 0 0 0 0 0 0 0 0 0 0 0 0 0 0 0 0 0 0 0 0 0
0 0 0 0 0 0 0 0 0 0 0 0 0 0 0 0 0 0 0 0 1 1 1 1 1 1 1 1 1 0 0 0 0 0 0 0 0 0 0 0 0 0 0 0 0 0 0 0 0
0 0 0 0 0 0 0 0 0 0 0 0 0 0 0 0 0 0 0 0 0 0 1 1 1 1 1 1 1 1 0 0 0 0 0 0 0 0 0 0 0 0 0 0 0 0 0 0 0
0 0 0 0 0 0 0 0 0 0 0 0 0 0 0 0 0 0 0 0 0 0 1 1 1 1 1 1 1 1 1 0 0 0 0 0 0 0 0 0 0 0 0 0 0 0 0 0 0
0 0 0 0 0 0 0 0 0 0 0 0 0 0 0 0 0 0 0 0 0 0 0 1 1 1 1 1 1 1 1 1 0 0 0 0 0 0 0 0 0 0 0 0 0 0 0 0 0
0 0 0 0 0 0 0 0 0 0 0 0 0 0 0 0 0 0 0 0 0 0 0 0 1 1 1 1 1 1 1 1 1 0 0 0 0 0 0 0 0 0 0 0 0 0 0 0 0
0 0 0 0 0 0 0 0 0 0 0 0 0 0 0 0 0 0 0 0 0 0 0 0 0 0 0 0 0 0 1 1 1 1 0 0 0 0 0 0 0 0 0 0 0 0 0 0 0
0 0 0 0 0 0 0 0 0 0 0 0 0 0 0 0 0 0 0 0 0 0 0 0 0 0 0 0 0 0 0 0 1 1 0 0 0 0 0 0 0 0 0 0 0 0 0 0 0
0 0 0 0 0 0 0 0 0 0 0 0 0 0 0 0 0 0 0 0 0 0 0 0 0 0 0 0 0 0 0 0 0 0 0 0 0 0 0 0 0 0 0 0 0 0 0 0 0
0 0 0 0 0 0 0 0 0 0 0 0 0 0 0 0 0 0 0 0 0 0 0 0 0 0 0 0 0 0 0 0 0 0 0 0 0 0 0 0 0 0 0 0 0 0 0 0 0
0 0 0 0 0 0 0 0 0 0 0 0 0 0 0 0 0 0 0 0 0 0 0 0 0 0 0 0 0 0 0 0 0 0 0 0 0 0 0 0 0 0 0 0 0 0 0 0 0
Wind_Speed
6 3 2 2 3 2 3 2 2 3 3 2 1 1 1 1 1 3 4 2 2 3 3 3 3 4 5 5 5 5 5 5 5 5 5 6 6 6 7 7 6 6 7 7 8 8 9 9 9
5 3 2 2 4 5 4 3 4 2 3 3 2 1 2 2 2 3 2 2 3 4 3 3 3 3 4 5 5 5 5 5 5 5 5 6 6 6 6 6 6 6 7 7 8 8 8 8 8
2 2 1 2 3 4 3 3 3 2 3 2 2 1 0 1 2 1 1 3 4 4 3 3 3 3 4 4 4 5 5 5 5 5 6 6 6 6 6 6 6 6 6 7 7 7 7 7 7
1 1 1 3 5 3 2 2 3 4 4 1 2 3 2 2 1 1 2 4 5 4 3 4 3 3 4 4 4 4 4 5 5 5 5 5 5 5 5 5 6 6 6 6 7 7 7 7 7
0 1 3 4 5 3 1 1 3 3 3 2 3 2 2 2 1 2 4 5 5 4 3 4 3 3 4 4 4 4 4 4 5 5 5 5 5 5 5 5 5 6 5 6 6 7 8 7 7
1 2 4 6 6 4 3 2 3 3 2 2 2 2 2 3 2 3 4 4 4 4 3 3 3 3 3 3 3 4 4 5 5 5 5 5 5 5 5 5 5 5 6 6 6 7 7 7 7
2 2 4 5 5 5 4 3 4 4 4 3 2 3 3 3 3 4 4 4 4 4 3 3 3 3 3 3 3 3 4 4 5 5 5 5 5 5 5 5 5 5 5 6 6 7 7 7 6
0 2 4 5 6 5 3 3 2 3 3 1 3 3 2 3 4 5 5 4 4 3 3 3 2 2 2 2 3 3 4 4 5 5 5 5 5 6 6 5 5 5 5 6 6 6 7 6 6
2 3 5 5 5 4 4 4 2 1 2 3 2 1 2 4 6 6 4 3 3 3 2 2 2 1 1 1 2 2 3 3 3 3 4 2 2 3 3 4 5 5 5 5 5 5 6 5 6
1 4 4 2 2 2 3 3 3 4 5 4 4 3 3 5 7 7 5 5 4 3 2 2 2 1 1 1 1 1 0 1 0 1 1 1 1 2 2 4 5 4 4 4 4 5 4 2 2
1 2 2 2 2 2 3 3 3 5 6 6 6 6 6 6 6 7 6 5 4 3 2 2 2 2 1 1 1 0 0 0 0 0 1 1 1 1 1 1 2 2 2 2 3 2 1 1 1
2 1 1 1 1 2 2 2 3 6 6 1 3 5 6 7 7 8 7 5 4 4 3 2 2 2 2 1 1 1 0 0 0 0 1 1 1 1 1 1 1 1 1 1 1 1 1 1 1
2 1 0 0 1 1 1 4 4 7 6 2 2 5 7 7 8 7 6 5 4 4 4 3 2 2 2 2 1 1 1 1 1 1 1 1 1 1 1 1 1 1 1 1 1 1 1 1 1
2 2 1 1 1 1 2 5 5 7 4 4 4 6 7 7 7 7 6 6 5 5 4 3 3 2 2 2 2 2 1 1 1 1 1 2 1 1 1 1 1 1 1 1 1 1 1 1 1
3 2 1 0 2 1 3 6 7 6 3 4 5 6 6 7 7 8 7 7 6 5 4 3 3 2 3 3 3 2 1 1 1 1 1 2 1 1 1 1 1 1 1 1 1 1 1 1 1
2 2 2 1 1 1 4 7 3 3 5 6 5 5 6 7 8 7 7 6 6 5 5 4 2 3 3 2 2 1 1 1 1 1 1 1 1 1 1 1 1 1 1 1 1 1 1 1 1
2 2 3 2 0 2 4 8 4 3 5 7 6 6 6 6 7 7 7 7 6 5 5 4 3 3 3 2 2 1 1 1 1 1 1 1 1 1 2 1 1 2 1 1 1 1 1 1 1
3 3 3 4 1 2 5 9 8 5 7 8 7 6 6 7 7 6 6 6 6 5 5 4 3 3 2 2 1 1 1 1 1 1 1 2 2 2 2 1 2 2 2 1 2 2 1 1 1
2 4 4 4 2 4 7 11 11 7 6 7 7 6 7 7 6 5 5 6 6 5 5 5 4 3 3 2 2 2 2 2 1 1 1 2 2 2 2 1 2 2 2 2 2 2 2 1 0
2 4 4 3 2 3 7 11 10 7 7 7 7 7 7 6 5 6 6 6 6 6 6 6 5 5 4 3 2 2 2 2 1 1 1 2 2 2 2 2 2 2 2 2 2 2 2 1 1
3 5 4 4 4 3 6 7 6 4 5 5 7 7 6 7 7 6 6 6 6 6 7 6 6 5 5 4 2 2 2 1 2 1 2 2 2 2 2 3 3 2 2 2 2 3 3 2 2
4 3 4 2 3 2 3 5 5 4 5 6 6 6 6 7 6 6 6 6 6 6 6 6 6 6 5 5 4 4 3 3 3 2 2 1 2 2 3 3 3 3 3 3 3 3 3 3 3
1 1 2 2 2 4 2 5 5 3 6 7 7 6 6 6 7 7 7 7 6 5 5 5 5 6 5 5 5 5 4 3 2 2 2 1 1 2 2 3 3 3 3 3 3 3 3 3 3
2 1 1 2 2 4 3 5 6 4 6 5 6 6 5 5 6 6 6 5 5 4 4 4 5 6 5 6 6 6 5 4 3 3 2 2 2 2 2 3 3 3 3 3 3 3 4 3 3
3 2 1 1 2 4 2 6 9 4 5 6 6 5 5 4 5 5 5 6 5 5 4 4 5 5 5 5 6 6 6 6 5 4 3 3 2 2 3 3 3 3 3 3 3 3 4 4 4
4 3 2 2 3 2 3 7 6 2 3 4 4 4 3 4 5 6 6 6 5 5 5 5 5 5 5 5 5 5 5 4 4 4 4 3 3 2 2 3 3 3 3 4 4 3 3 4 4
4 3 1 1 0 3 5 6 7 3 3 3 3 3 4 4 5 5 5 5 6 6 6 6 6 5 5 5 5 5 5 5 4 4 4 3 3 2 2 3 3 3 3 4 4 3 4 4 4
1 3 3 3 2 4 4 5 4 4 4 2 2 3 4 4 4 5 5 5 5 5 5 5 6 6 5 5 4 4 4 4 4 3 3 3 3 2 2 2 3 3 3 3 3 3 3 4 4
5 4 3 2 2 3 4 4 3 4 3 4 4 4 4 4 5 5 5 4 4 5 5 5 5 5 5 5 4 4 4 4 3 3 3 3 2 3 3 3 3 3 3 3 3 4 4 4 4
3 5 6 4 4 4 4 6 1 3 3 4 4 4 4 4 4 4 4 4 4 5 5 6 6 6 5 5 4 4 4 3 3 3 3 3 3 3 3 3 3 3 3 3 4 4 4 5 5
Wind_Direction
328 327 271 236 211 203 212 180 172 150 142 102 105 177 165 123 335 52 64 117 120 137 135 118 67 72 77 76 74 80 87 86 93 96 95 92 89 83 80 80 81 85 89 91 90 88 87 86 85
332 316 247 237 233 214 197 180 181 160 105 123 126 153 160 129 35 56 96 130 138 136 136 128 79 78 81 78 74 74 83 85 86 95 93 90 86 82 79 76 80 85 86 90 91 90 89 89 90
327 325 263 210 226 233 193 163 160 130 131 164 149 138 332 78 95 92 71 152 146 137 136 115 81 88 86 82 80 76 76 82 80 85 89 89 87 80 79 77 78 82 82 85 87 88 88 89 91
255 170 183 224 217 228 242 136 139 147 158 174 185 153 132 45 32 44 122 151 145 136 132 117 82 92 90 84 83 80 80 74 71 78 83 85 86 81 76 73 78 80 80 82 85 85 85 86 88
267 212 190 207 223 211 230 215 177 177 166 160 197 185 138 104 68 110 139 150 145 137 130 128 91 90 89 85 80 76 75 76 69 78 77 81 80 77 75 76 73 79 81 84 85 84 81 82 84
158 210 215 218 211 209 220 219 194 203 189 166 198 200 138 110 127 131 143 150 142 133 127 126 95 79 80 76 71 70 71 71 73 75 74 72 73 71 73 75 76 81 80 84 86 84 80 78 78
193 204 223 219 208 213 209 200 213 215 210 198 211 199 152 150 138 140 144 142 135 128 127 126 127 116 84 69 64 62 64 66 65 66 67 65 64 64 70 68 74 76 78 82 83 83 79 77 77
254 170 201 212 212 213 185 190 216 234 226 176 213 218 174 143 142 145 143 143 140 135 137 137 132 140 152 132 69 51 55 64 63 60 60 66 71 75 67 67 66 72 79 81 80 81 78 77 75
228 212 218 214 211 193 178 200 194 235 196 183 211 283 50 123 149 150 150 156 156 152 151 154 148 150 165 165 89 74 68 70 72 72 71 83 108 102 90 71 63 71 77 78 80 81 78 77 80
229 217 226 229 227 189 189 219 210 203 209 209 201 186 143 148 164 169 173 178 179 181 178 178 178 174 187 167 163 178 155 120 135 112 107 115 105 90 91 77 69 74 75 80 79 80 81 85 97
121 205 201 209 197 195 209 227 224 228 230 226 218 193 172 170 180 187 190 191 191 190 188 196 193 193 201 190 201 196 202 256 232 181 146 136 125 117 117 113 101 103 101 104 99 102 88 76 74
128 170 234 211 201 198 218 232 232 237 250 271 212 183 177 184 193 196 197 197 198 202 201 202 200 198 205 208 206 202 192 235 255 234 216 188 169 158 146 140 126 129 129 118 116 104 97 92 88
155 168 174 279 192 208 231 242 251 254 250 243 197 187 196 199 204 203 200 201 204 213 213 209 207 200 196 197 201 203 210 219 244 246 230 220 200 180 171 160 156 156 136 149 139 134 121 115 119
118 134 134 307 236 241 250 259 248 260 244 219 206 205 207 209 208 204 202 206 210 215 218 213 212 208 202 201 203 203 205 193 213 226 234 215 206 188 185 177 167 167 170 162 172 169 167 170 161
133 126 127 291 272 254 262 261 234 251 223 217 216 216 217 220 214 214 211 209 209 209 208 208 212 215 217 213 206 194 191 190 192 205 201 186 190 193 193 191 187 189 176 168 163 164 182 174 166
177 198 226 176 283 278 250 259 238 221 222 231 228 226 226 226 221 220 215 212 209 207 207 209 207 213 219 222 215 197 189 182 193 176 165 162 168 192 196 198 196 168 162 171 170 180 182 178 194
187 224 247 247 228 262 242 259 256 223 234 243 239 234 232 230 228 222 214 210 206 204 205 207 209 214 217 213 211 198 189 189 196 170 164 176 175 190 187 189 176 173 172 178 183 193 200 193 211
202 221 243 252 283 271 254 263 270 252 246 249 244 238 234 229 230 221 213 207 206 204 205 205 204 209 210 196 184 176 177 197 194 196 208 199 185 191 180 173 178 178 178 177 184 187 185 204 236
194 210 250 266 303 279 267 272 272 262 245 248 242 233 232 234 223 211 208 204 204 203 204 203 198 198 191 192 198 206 208 205 210 223 232 218 197 190 188 189 187 183 185 184 187 185 182 185 195
206 228 254 282 315 282 287 280 270 254 241 243 244 235 231 230 212 204 204 200 205 207 208 207 205 204 202 205 203 219 214 213 225 225 242 229 210 199 196 201 206 199 190 185 188 191 197 186 185
239 240 248 282 306 261 293 273 244 232 239 240 240 238 230 225 217 205 203 205 207 211 212 212 210 209 209 204 181 173 191 193 200 213 234 233 225 207 203 205 209 203 202 204 203 205 208 202 186
242 236 243 266 291 298 315 283 245 232 248 240 236 233 229 221 218 214 211 209 209 212 213 216 214 211 209 200 197 197 207 215 220 220 222 216 211 218 213 211 210 205 206 213 214 215 224 213 198
217 223 229 247 272 278 247 265 261 214 241 236 229 228 227 222 218 217 217 217 214 211 210 212 212 212 209 206 206 208 219 226 219 208 217 217 207 217 221 218 209 209 211 213 215 208 210 214 214
178 175 180 204 241 260 235 246 261 214 224 231 225 224 222 216 219 219 218 217 214 205 202 205 206 209 210 208 210 212 216 218 212 212 212 216 217 213 216 218 215 214 215 214 216 215 209 210 214
203 204 229 224 231 248 168 235 253 242 236 242 240 230 222 213 215 212 211 212 208 204 202 202 204 209 207 208 211 212 216 216 217 217 215 217 220 218 213 209 216 217 217 216 216 215 215 214 215
195 224 203 242 257 277 197 239 257 278 278 259 257 246 237 225 222 214 210 209 206 205 203 201 206 212 207 206 210 212 216 216 220 218 215 216 222 225 219 210 214 217 213 212 210 215 220 217 219
174 192 312 133 116 268 248 266 285 236 236 231 239 236 236 235 228 223 217 213 211 208 207 205 207 211 210 210 210 211 212 215 219 219 218 219 220 219 215 211 211 215 213 211 207 212 217 217 225
283 155 168 190 231 269 276 258 245 221 220 212 219 236 244 237 231 226 224 220 217 213 209 206 209 212 212 211 211 213 214 215 216 215 217 220 217 210 208 205 204 207 209 206 203 210 217 219 224
169 178 188 170 246 241 271 262 217 221 216 224 234 243 245 235 231 229 227 222 215 209 207 207 209 211 210 209 209 211 212 211 212 213 217 218 213 206 210 212 206 206 211 210 207 213 216 221 230
225 209 189 205 219 228 258 271 165 228 247 244 255 263 254 247 244 236 228 218 214 214 211 210 210 209 210 205 204 205 204 202 205 211 219 217 216 214 210 211 205 206 214 215 213 218 221 224 231